Weather History for KCRP - July, 2013

Change the Weather History Date:

Tuesday, July 16, 2013

  Actual Average Record
Temperature  
Mean Temperature 83 °F 84 °F  
Max Temperature 89 °F 93 °F 99 °F (2000)
Min Temperature 77 °F 75 °F 64 °F (1967)
Degree Days  
Heating Degree Days 0 0  
Month to date heating degree days 0 0  
Since 1 June heating degree days 0 0  
Since 1 July heating degree days 0 0  
Cooling Degree Days 18 19  
Month to date cooling degree days 338 300  
Year to date cooling degree days 2014 1663  
Since 1 June cooling degree days 996 822  
Growing Degree Days 34 (Base 50)    
Moisture  
Dew Point 74 °F    
Average Humidity 74    
Maximum Humidity 85    
Minimum Humidity 63    
Precipitation  
Precipitation 0.85 in 0.09 in 3.05 in (1931)
Month to date precipitation 0.85 1.81  
Year to date precipitation 7.92 15.44  
Snow  
Snow 0.00 in - - ()
Month to date snowfall 0.0  
Since 1 June snowfall 0.0  
Since 1 July snowfall 0.0  
Snow Depth 0.00 in    
Sea Level Pressure  
Sea Level Pressure 29.99 in    
Wind  
Wind Speed 12 mph (ESE)    
Max Wind Speed 30 mph    
Max Gust Speed 37 mph    
Visibility 8 miles    
Events Rain    
T = Trace of Precipitation, MM = Missing Value Source: NWS Daily Summary

Daily Weather History Graph

Daily Weather History Graph

Search for Another Location

Airport or City:

Trip Planner

Search our weather history database for the weather conditions in past years. The results will help you decide how hot, cold, wet, or windy it might be!

Date:

Astronomy

Jul. 16, 2013 Rise Set
Actual Time 6:44 AM CDT 8:27 PM CDT
Civil Twilight 6:18 AM CDT 8:53 PM CDT
Nautical Twilight 5:47 AM CDT 9:24 PM CDT
Astronomical Twilight 5:14 AM CDT 9:57 PM CDT
Moon 2:22 PM CDT (7/16) 1:00 AM CDT (7/16)
Length of Visible Light 14h 34m
Length of Day
13h 42m
First Quarter, 56% of the Moon is Illuminated
Jul 16
First Quarter
Jul 22
Full
Jul 29
Last Quarter
Aug 6
New
Aug 14
First Quarter

Hourly Weather History & Observations

Time (CDT) Temp. Heat Index Dew Point Humidity Pressure Visibility Wind Dir Wind Speed Gust Speed Precip Events Conditions
12:51 AM 84.0 °F 91.9 °F 75.0 °F 74% 29.96 in 10.0 mi SE 9.2 mph - N/A   Partly Cloudy
1:51 AM 82.9 °F 89.4 °F 73.9 °F 74% 29.97 in 10.0 mi ESE 9.2 mph - N/A   Scattered Clouds
2:51 AM 81.0 °F 85.8 °F 73.0 °F 77% 29.95 in 10.0 mi SE 8.1 mph - 0.02 in   Partly Cloudy
3:51 AM 80.1 °F 84.2 °F 73.0 °F 79% 29.94 in 10.0 mi Calm Calm - N/A   Partly Cloudy
4:36 AM 80.6 °F 85.4 °F 73.4 °F 79% 29.94 in 6.0 mi SE 11.5 mph 17.3 mph 0.00 in Rain Rain
4:43 AM 78.8 °F - 73.4 °F 83% 29.94 in 10.0 mi SSE 5.8 mph 17.3 mph 0.10 in Rain Light Rain
4:51 AM 80.1 °F 84.2 °F 73.0 °F 79% 29.94 in 10.0 mi SE 5.8 mph - 0.11 in Rain Light Rain
5:51 AM 80.1 °F 84.5 °F 73.9 °F 81% 29.94 in 10.0 mi ESE 5.8 mph - 0.00 in   Partly Cloudy
6:51 AM 80.1 °F 85.1 °F 75.0 °F 85% 29.95 in 10.0 mi East 5.8 mph - N/A   Partly Cloudy
7:51 AM 82.0 °F 88.6 °F 75.0 °F 79% 29.96 in 10.0 mi SE 8.1 mph - N/A   Scattered Clouds
8:51 AM 82.9 °F 88.8 °F 73.0 °F 72% 29.99 in 10.0 mi ESE 11.5 mph - 0.00 in   Mostly Cloudy
9:51 AM 82.0 °F 88.6 °F 75.0 °F 79% 29.99 in 10.0 mi SE 15.0 mph 24.2 mph N/A   Mostly Cloudy
10:51 AM 88.0 °F 96.5 °F 73.9 °F 63% 30.00 in 10.0 mi ESE 20.7 mph 25.3 mph N/A   Scattered Clouds
11:51 AM 86.0 °F 93.8 °F 73.9 °F 67% 30.01 in 5.0 mi SE 21.9 mph 27.6 mph 0.00 in Rain Light Rain
12:07 PM 78.8 °F - 71.6 °F 78% 30.02 in 1.0 mi SSE 26.5 mph 36.8 mph 0.09 in Rain Heavy Rain
12:10 PM 78.8 °F - 71.6 °F 78% 30.02 in 2.0 mi South 13.8 mph 36.8 mph 0.22 in Rain Heavy Rain
12:13 PM 78.8 °F - 71.6 °F 78% 30.01 in 3.0 mi SSE 12.7 mph 36.8 mph 0.33 in Rain Light Rain
12:44 PM 86.0 °F 95.1 °F 75.2 °F 70% 30.01 in 8.0 mi SE 17.3 mph 26.5 mph 0.34 in   Mostly Cloudy
12:51 PM 88.0 °F 96.5 °F 73.9 °F 63% 30.01 in 8.0 mi SE 21.9 mph 26.5 mph 0.34 in   Mostly Cloudy
1:51 PM 80.1 °F 84.5 °F 73.9 °F 81% 30.01 in 4.0 mi SE 19.6 mph 29.9 mph 0.06 in Rain Light Rain
2:51 PM 84.9 °F 94.1 °F 75.9 °F 74% 30.00 in 10.0 mi East 10.4 mph 19.6 mph 0.04 in   Mostly Cloudy
3:25 PM 80.6 °F 85.4 °F 73.4 °F 79% 30.00 in 2.0 mi ESE 21.9 mph 33.4 mph 0.00 in Rain Heavy Rain
3:26 PM 80.6 °F 85.4 °F 73.4 °F 79% 30.00 in 2.0 mi ESE 17.3 mph 33.4 mph 0.01 in Rain Heavy Rain
3:36 PM 80.6 °F 86.2 °F 75.2 °F 84% 30.00 in 6.0 mi SE 13.8 mph - 0.19 in Rain Light Rain
3:51 PM 80.1 °F 85.1 °F 75.0 °F 85% 30.00 in 10.0 mi SSE 10.4 mph - 0.19 in   Mostly Cloudy
4:51 PM 84.0 °F 91.9 °F 75.0 °F 74% 29.99 in 10.0 mi East 17.3 mph - N/A   Mostly Cloudy
5:51 PM 84.0 °F 91.9 °F 75.0 °F 74% 29.98 in 10.0 mi East 16.1 mph 21.9 mph N/A   Scattered Clouds
6:07 PM 80.6 °F 84.6 °F 71.6 °F 74% 29.99 in 10.0 mi SSE 11.5 mph - N/A   Mostly Cloudy
6:48 PM 82.4 °F 89.5 °F 75.2 °F 79% 29.98 in 10.0 mi ESE 19.6 mph - 0.00 in   Scattered Clouds
6:51 PM 84.0 °F 91.9 °F 75.0 °F 74% 29.98 in 10.0 mi ESE 18.4 mph - 0.00 in   Scattered Clouds
7:33 PM 80.6 °F 85.4 °F 73.4 °F 79% 30.00 in 10.0 mi East 11.5 mph - 0.01 in   Mostly Cloudy
7:44 PM 80.6 °F 86.2 °F 75.2 °F 84% 30.00 in 10.0 mi East 13.8 mph - 0.01 in Rain Light Rain
7:51 PM 80.1 °F 84.5 °F 73.9 °F 81% 30.00 in 10.0 mi East 13.8 mph - 0.01 in Rain Light Rain
8:51 PM 82.0 °F 87.9 °F 73.9 °F 76% 30.01 in 10.0 mi ESE 13.8 mph - 0.00 in   Scattered Clouds
9:51 PM 78.1 °F - 72.0 °F 81% 30.03 in 10.0 mi East 10.4 mph - 0.03 in Rain Light Rain
10:51 PM 80.1 °F 85.1 °F 75.0 °F 85% 30.04 in 10.0 mi East 6.9 mph - 0.01 in   Partly Cloudy
11:51 PM 80.1 °F 84.5 °F 73.9 °F 81% 30.04 in 10.0 mi ESE 8.1 mph - N/A   Partly Cloudy